EW5024 Weather Reports


Display with metric or nautical units.
time (UTC)temp
F
wind
direction
speed
MPH
gust
MPH
rain 1hr
in
rain 24hr
in
rain mn
in
humidity
%
barometer
mb
20260508034530 54 334 0.0 3.0 0.00 0.00 0.00 81 1016.6
20260508033031 54 17 0.0 3.0 0.00 0.00 0.00 81 1016.7
20260508031528 54 319 2.0 4.0 0.00 0.00 0.00 80 1016.6
20260508030041 54 285 0.0 0.0 0.00 0.00 0.00 80 1016.5
20260508024532 55 285 0.0 5.0 0.00 0.01 0.00 79 1016.5
20260508023025 55 165 3.0 7.0 0.00 0.01 0.00 79 1016.5
20260508021524 54 314 0.0 0.0 0.00 0.01 0.00 80 1016.4
20260508020024 54 314 0.0 0.0 0.00 0.01 0.00 80 1016.5
20260508014524 54 314 0.0 3.0 0.00 0.01 0.00 80 1016.6
20260508013023 55 332 0.0 0.0 0.00 0.01 0.00 79 1016.5
20260508011522 55 332 0.0 0.0 0.00 0.01 0.00 79 1016.5
20260508010025 54 332 0.0 0.0 0.00 0.01 0.00 80 1016.4
20260508004520 54 331 0.0 0.0 0.00 0.01 0.00 80 1016.3
20260508003019 54 331 0.0 2.0 0.00 0.01 0.00 80 1016.2
20260508001516 55 332 0.0 3.0 0.00 0.01 0.00 79 1016.0
20260508000015 55 330 0.0 0.0 0.00 0.01 0.00 79 1016.1
20260507234514 55 329 0.0 3.0 0.00 0.02 0.00 79 1016.3
20260507233013 55 328 0.0 1.0 0.00 0.02 0.00 78 1016.3
20260507231516 56 328 0.0 0.0 0.00 0.02 0.00 78 1016.2
20260507230009 56 327 0.0 3.0 0.00 0.02 0.00 77 1016.3
20260507224508 56 327 0.0 0.0 0.00 0.02 0.00 77 1016.2
20260507223007 56 327 0.0 1.0 0.00 0.02 0.00 76 1016.1
20260507221507 57 326 0.0 2.0 0.00 0.02 0.00 75 1016.0
20260507220100 57 327 0.0 0.0 0.00 0.02 0.00 74 1015.9
20260507214559 58 327 0.0 1.0 0.00 0.03 0.02 73 1015.8
20260507213106 58 342 2.0 3.0 0.00 0.03 0.02 72 1015.7
20260507211600 60 323 2.0 5.0 0.00 0.03 0.02 67 1015.6
20260507210055 61 130 2.0 5.0 0.00 0.03 0.02 66 1015.4
20260507204600 61 114 2.0 4.0 0.00 0.03 0.02 66 1015.3
20260507203055 61 132 2.0 5.0 0.00 0.03 0.02 66 1015.3
20260507201601 61 165 2.0 4.0 0.00 0.03 0.02 65 1015.1
20260507200055 62 139 1.0 7.0 0.00 0.03 0.02 64 1015.0
20260507194557 62 127 3.0 8.0 0.00 0.04 0.02 63 1014.8
20260507193045 62 215 1.0 5.0 0.00 0.04 0.02 62 1014.6
20260507191601 63 97 3.0 11.0 0.00 0.04 0.02 61 1014.2
20260507190044 63 114 4.0 9.0 0.00 0.04 0.02 60 1014.0
20260507184554 63 128 4.0 9.0 0.00 0.04 0.02 60 1013.6
20260507183047 63 117 6.0 9.0 0.00 0.04 0.02 60 1013.5
20260507181541 64 115 5.0 8.0 0.00 0.04 0.02 56 1013.4
20260507180042 65 144 5.0 10.0 0.00 0.04 0.02 53 1013.1
20260507174542 65 151 5.0 11.0 0.00 0.04 0.02 52 1012.9
20260507173040 66 132 9.0 12.0 0.00 0.04 0.02 50 1012.8
20260507171547 66 167 7.0 16.0 0.00 0.04 0.02 49 1012.5
20260507170039 66 185 10.0 17.0 0.00 0.04 0.02 49 1012.4
20260507164552 65 148 8.0 17.0 0.00 0.04 0.02 53 1012.5
20260507163040 66 188 9.0 17.0 0.00 0.04 0.02 53 1012.4
20260507161539 66 215 14.0 23.0 0.00 0.04 0.02 52 1012.5
20260507160036 67 194 10.0 24.0 0.00 0.04 0.02 51 1012.4
20260507154536 68 189 13.0 21.0 0.00 0.04 0.02 49 1012.4
20260507153034 69 172 7.0 23.0 0.00 0.04 0.02 46 1012.4
20260507151534 69 187 6.0 15.0 0.00 0.04 0.02 45 1012.2
20260507150034 69 142 4.0 14.0 0.00 0.04 0.02 49 1012.2
20260507144529 69 190 8.0 17.0 0.00 0.04 0.02 46 1012.4
20260507143045 69 192 7.0 13.0 0.00 0.04 0.02 50 1012.5
20260507141526 68 205 9.0 20.0 0.00 0.04 0.02 50 1012.6
20260507140021 67 196 7.0 12.0 0.00 0.04 0.02 52 1012.7
20260507134520 65 252 2.0 7.0 0.00 0.05 0.02 58 1013.0
20260507133020 67 225 3.0 9.0 0.00 0.05 0.02 53 1013.3
20260507131515 66 138 4.0 13.0 0.00 0.05 0.02 54 1013.5
20260507130030 65 140 6.0 14.0 0.00 0.05 0.02 58 1013.5
20260507124514 63 141 11.0 17.0 0.00 0.16 0.02 57 1013.4
20260507123013 62 111 11.0 15.0 0.00 0.16 0.02 62 1013.4
20260507121511 63 115 16.0 22.0 0.00 0.16 0.02 61 1013.3
20260507120011 63 159 9.0 19.0 0.00 0.16 0.02 61 1013.0
20260507114512 64 194 13.0 25.0 0.00 0.17 0.02 60 1012.5
20260507113010 63 221 8.0 25.0 0.00 0.17 0.02 63 1012.7
20260507111509 64 215 4.0 13.0 0.00 0.17 0.02 61 1012.9
20260507110008 64 175 4.0 10.0 0.00 0.17 0.02 59 1013.0
20260507104507 65 182 0.0 3.0 0.00 0.18 0.02 60 1013.2
20260507103006 65 258 0.0 3.0 0.00 0.18 0.02 61 1013.3
20260507101507 65 278 2.0 4.0 0.00 0.18 0.02 60 1013.3
20260507100007 65 328 4.0 6.0 0.00 0.18 0.02 61 1013.4
20260507094502 65 281 3.0 4.0 0.00 0.18 0.02 61 1013.4
20260507093101 64 53 2.0 4.0 0.00 0.18 0.02 63 1013.6
20260507091558 63 84 1.0 8.0 0.00 0.18 0.02 65 1013.6
20260507084556 62 9 0.0 3.0 0.00 0.18 0.02 68 1014.0
20260507083050 60 218 1.0 3.0 0.00 0.18 0.02 70 1014.2
20260507081553 59 65 1.0 4.0 0.00 0.18 0.02 74 1014.2
20260507080042 58 53 1.0 3.0 0.00 0.18 0.02 75 1014.2
20260507074539 57 311 1.0 3.0 0.00 0.19 0.02 76 1014.2
20260507073037 57 311 1.0 3.0 0.00 0.19 0.02 77 1014.2
20260507071537 56 303 1.0 2.0 0.00 0.19 0.02 79 1014.2
20260507070036 56 303 2.0 4.0 0.00 0.19 0.02 81 1014.2
20260507064557 55 304 1.0 3.0 0.00 0.19 0.02 82 1014.2
20260507063035 55 327 1.0 3.0 0.00 0.19 0.02 82 1014.2
20260507061532 54 318 0.0 2.0 0.00 0.19 0.02 82 1014.1
20260507060029 54 317 0.0 0.0 0.00 0.19 0.02 82 1014.0
20260507054527 54 308 0.0 0.0 0.00 0.19 0.02 82 1013.9
20260507053026 53 306 0.0 1.0 0.00 0.19 0.02 82 1013.9
20260507051526 53 321 0.0 0.0 0.00 0.19 0.02 82 1013.9
20260507050036 53 321 0.0 0.0 0.00 0.19 0.02 82 1013.7
20260507044523 53 319 0.0 0.0 0.00 0.19 0.02 82 1013.5
20260507043022 53 319 0.0 1.0 0.00 0.19 0.02 82 1013.4
20260507041525 53 269 1.0 3.0 0.00 0.19 0.02 82 1013.3
20260507040018 53 239 0.0 0.0 0.00 0.19 0.02 82 1013.1